South Paris, Maine, United States (04281)
Lat: 44.22N, Lon: 70.51W
Wx Zone: MEZ012
Local Info
Past Weather Observations for Wednesday, September 17, 2014

NOTE: This archive is for the closest National Weather Service station to South Paris. Information may differ from the station used for current weather conditions.

Click here for Long-term Archive

Time Weather Temperature Dewpoint Humidity Pressure Winds Precip Visibility
23:55
Clear
46°F / 8°C 45°F / 7°C 93% 29.92 in
(1013 mb)
Calm - 1 1/4SM
23:35
Clear
48°F / 9°C 45°F / 7°C 87% 29.95 in
(1014 mb)
Calm - 9SM
23:15
Clear
48°F / 9°C 46°F / 8°C 94% 29.95 in
(1014 mb)
SSE 4.6 mph
(SSE 7 kph)
- 9SM
22:55
Clear
50°F / 10°C 46°F / 8°C 88% 29.95 in
(1014 mb)
Calm - 2 1/2SM
22:35
Clear
50°F / 10°C 46°F / 8°C 88% 29.95 in
(1014 mb)
Calm - 2 1/2SM
22:15
Clear
52°F / 11°C 48°F / 9°C 88% 29.95 in
(1014 mb)
SSE 4.6 mph
(SSE 7 kph)
- 10SM
21:55
Clear
52°F / 11°C 48°F / 9°C 88% 29.95 in
(1014 mb)
S 3.5 mph
(S 6 kph)
- 6SM
21:35
Clear
52°F / 11°C 48°F / 9°C 88% 29.95 in
(1014 mb)
S 4.6 mph
(S 7 kph)
- 7SM
21:15
Clear
52°F / 11°C 48°F / 9°C 88% 29.95 in
(1014 mb)
SSE 4.6 mph
(SSE 7 kph)
- 8SM
20:55
Clear
52°F / 11°C 48°F / 9°C 88% 29.95 in
(1014 mb)
S 5.8 mph
(S 9 kph)
- 9SM
20:35
Clear
54°F / 12°C 48°F / 9°C 82% 29.95 in
(1014 mb)
SSE 6.9 mph
(SSE 11 kph)
- 10SM
20:15
Clear
54°F / 12°C 48°F / 9°C 82% 29.98 in
(1015 mb)
SSE 6.9 mph
(SSE 11 kph)
- 10SM
19:55
Partly Cloudy
54°F / 12°C 48°F / 9°C 82% 29.98 in
(1015 mb)
SSE 4.6 mph
(SSE 7 kph)
- 10SM
19:35
Mostly Cloudy
54°F / 12°C 50°F / 10°C 88% 29.98 in
(1015 mb)
SSE 5.8 mph
(SSE 9 kph)
- 10SM
19:15
Partly Cloudy
55°F / 13°C 48°F / 9°C 77% 29.98 in
(1015 mb)
SSE 6.9 mph
(SSE 11 kph)
- 10SM
18:55
Clear
55°F / 13°C 48°F / 9°C 77% 29.98 in
(1015 mb)
SSE 5.8 mph
(SSE 9 kph)
- 10SM
18:35
Clear
55°F / 13°C 48°F / 9°C 77% 29.98 in
(1015 mb)
SSE 5.8 mph
(SSE 9 kph)
- 10SM
18:15
Clear
57°F / 14°C 48°F / 9°C 72% 29.98 in
(1015 mb)
SSE 6.9 mph
(SSE 11 kph)
- 10SM
17:55
Clear
57°F / 14°C 48°F / 9°C 72% 29.95 in
(1014 mb)
SSE 6.9 mph
(SSE 11 kph)
- 10SM
17:35
Clear
61°F / 16°C 46°F / 8°C 59% 29.95 in
(1014 mb)
S 4.6 mph
(S 7 kph)
- 10SM
17:15
Clear
61°F / 16°C 48°F / 9°C 63% 29.95 in
(1014 mb)
S 6.9 mph
(S 11 kph)
- 10SM
16:55
Clear
63°F / 17°C 48°F / 9°C 59% 29.95 in
(1014 mb)
S 6.9 mph
(S 11 kph)
- 10SM
16:35
Clear
63°F / 17°C 48°F / 9°C 59% 29.95 in
(1014 mb)
S 8.1 mph
(S 13 kph)
- 10SM
16:15
Clear
64°F / 18°C 46°F / 8°C 52% 29.95 in
(1014 mb)
S 9.2 mph
(S 15 kph)
- 10SM
15:55
Clear
64°F / 18°C 46°F / 8°C 52% 29.95 in
(1014 mb)
S 10.4 mph
(S 17 kph)
- 10SM
15:35
Clear
64°F / 18°C 46°F / 8°C 52% 29.95 in
(1014 mb)
S 6.9 mph
(S 11 kph)
- 10SM
15:15
Clear
64°F / 18°C 48°F / 9°C 56% 29.95 in
(1014 mb)
S 9.2 mph
(S 15 kph)
- 10SM
14:55
Partly Cloudy
63°F / 17°C 46°F / 8°C 56% 29.95 in
(1014 mb)
SSE 5.8 mph
(SSE 9 kph)
- 10SM
14:35
Partly Cloudy
64°F / 18°C 46°F / 8°C 52% 29.95 in
(1014 mb)
SSE 5.8 mph
(SSE 9 kph)
- 10SM
14:15
Partly Cloudy
64°F / 18°C 46°F / 8°C 52% 29.95 in
(1014 mb)
SSE 8.1 mph
(SSE 13 kph)
- 10SM
13:55
Mostly Cloudy
64°F / 18°C 48°F / 9°C 56% 29.95 in
(1014 mb)
S 10.4 mph
(S 17 kph)
- 10SM
13:35
Mostly Cloudy
64°F / 18°C 48°F / 9°C 56% 29.98 in
(1015 mb)
SE 8.1 mph
(SE 13 kph)
- 5SM
13:15
Mostly Cloudy
64°F / 18°C 46°F / 8°C 52% 29.98 in
(1015 mb)
S 10.4 mph
(S 17 kph)
- 10SM
12:55
Partly Cloudy
66°F / 19°C 45°F / 7°C 46% 29.98 in
(1015 mb)
SSW 9.2 mph
(SSW 15 kph)
- 10SM
12:35
Partly Cloudy
64°F / 18°C 45°F / 7°C 49% 29.98 in
(1015 mb)
SSW 9.2 mph
(SSW 15 kph)
- 10SM
12:15
Partly Cloudy
64°F / 18°C 45°F / 7°C 49% 29.98 in
(1015 mb)
SSW 8.1 mph
(SSW 13 kph)
- 10SM
11:55
Partly Cloudy
64°F / 18°C 43°F / 6°C 46% 29.98 in
(1015 mb)
WNW 4.6 mph
(WNW 7 kph)
- 10SM
11:35
Mostly Cloudy
64°F / 18°C 43°F / 6°C 46% 30.01 in
(1016 mb)
SW 6.9 mph
(SW 11 kph)
- 10SM
11:15
Mostly Cloudy
64°F / 18°C 43°F / 6°C 46% 30.01 in
(1016 mb)
Calm - 10SM
10:55
Partly Cloudy
64°F / 18°C 43°F / 6°C 46% 30.01 in
(1016 mb)
SSW 3.5 mph
(SSW 6 kph)
- 10SM
10:35
Clear
63°F / 17°C 45°F / 7°C 52% 30.01 in
(1016 mb)
W 6.9 mph
(W 11 kph)
- 10SM
10:15
Clear
63°F / 17°C 45°F / 7°C 52% 30.01 in
(1016 mb)
W 6.9 mph
(W 11 kph)
- 10SM
09:55
Clear
63°F / 17°C 46°F / 8°C 56% 30.01 in
(1016 mb)
NW 4.6 mph
(NW 7 kph)
- 10SM
09:35
Clear
61°F / 16°C 46°F / 8°C 59% 30.01 in
(1016 mb)
WNW 5.8 mph
(WNW 9 kph)
- 10SM
09:15
Clear
59°F / 15°C 48°F / 9°C 68% 30.01 in
(1016 mb)
NW 3.5 mph
(NW 6 kph)
- 10SM
08:55
Clear
57°F / 14°C 48°F / 9°C 72% 30.01 in
(1016 mb)
NW 3.5 mph
(NW 6 kph)
- 10SM
08:35
Clear
55°F / 13°C 48°F / 9°C 77% 30.01 in
(1016 mb)
NW 3.5 mph
(NW 6 kph)
- 10SM
08:15
Clear
55°F / 13°C 48°F / 9°C 77% 30.01 in
(1016 mb)
Calm - 10SM
07:55
Clear
52°F / 11°C 48°F / 9°C 88% 30.01 in
(1016 mb)
Calm - 10SM
07:35
Clear
50°F / 10°C 46°F / 8°C 88% 30.01 in
(1016 mb)
Calm - 10SM
07:15
Clear
46°F / 8°C 45°F / 7°C 93% 30.01 in
(1016 mb)
Calm - 10SM
06:55
Clear
46°F / 8°C 43°F / 6°C 87% 30.01 in
(1016 mb)
N 3.5 mph
(N 6 kph)
- 10SM
06:35
Clear
45°F / 7°C 43°F / 6°C 93% 30.01 in
(1016 mb)
Calm - 10SM
06:15
Clear
43°F / 6°C 39°F / 4°C 87% 30.01 in
(1016 mb)
Calm - 10SM
05:55
Clear
43°F / 6°C 39°F / 4°C 87% 30.01 in
(1016 mb)
Calm - 10SM
05:35
Partly Cloudy
43°F / 6°C 39°F / 4°C 87% 30.01 in
(1016 mb)
Calm - 1 1/2SM
05:15
Mostly Cloudy
43°F / 6°C 39°F / 4°C 87% 30.01 in
(1016 mb)
Calm - 1 3/4SM
04:55
Overcast
43°F / 6°C 39°F / 4°C 87% 29.98 in
(1015 mb)
Calm - 2SM
04:35
Mostly Cloudy
43°F / 6°C 39°F / 4°C 87% 29.98 in
(1015 mb)
Calm - 3/4SM
04:15
Mostly Cloudy
43°F / 6°C 39°F / 4°C 87% 29.98 in
(1015 mb)
Calm - 1/2SM
03:55
Partly Cloudy
43°F / 6°C 39°F / 4°C 87% 29.98 in
(1015 mb)
Calm - 1 1/2SM
03:35
Mostly Cloudy
46°F / 8°C 43°F / 6°C 87% 29.98 in
(1015 mb)
Calm - 2SM
03:15
Overcast
46°F / 8°C 45°F / 7°C 93% 29.98 in
(1015 mb)
Calm - 1/2SM
02:55
Overcast
46°F / 8°C 43°F / 6°C 87% 29.98 in
(1015 mb)
Calm - 1/2SM
02:35
Overcast
46°F / 8°C 43°F / 6°C 87% 29.98 in
(1015 mb)
Calm - 3/4SM
02:15
Overcast
46°F / 8°C 43°F / 6°C 87% 29.98 in
(1015 mb)
Calm - 1/2SM
01:55
Overcast
46°F / 8°C 43°F / 6°C 87% 29.98 in
(1015 mb)
Calm - 10SM
01:35
Overcast
46°F / 8°C 45°F / 7°C 93% 29.98 in
(1015 mb)
Calm - 10SM
01:15
Overcast
46°F / 8°C 45°F / 7°C 93% 29.98 in
(1015 mb)
Calm - 10SM
00:55
Overcast
46°F / 8°C 43°F / 6°C 87% 29.98 in
(1015 mb)
Calm - 10SM
00:35
Overcast
46°F / 8°C 43°F / 6°C 87% 29.98 in
(1015 mb)
Calm - 10SM
00:15
Overcast
46°F / 8°C 43°F / 6°C 87% 29.98 in
(1015 mb)
Calm - 1SM
Time Weather Temperature Dewpoint Humidity Pressure Winds Precip Visibility


Weather for websites

WeatherForYou.com, LLC is not responsible for any damages or problems caused by this service. Current weather conditions are obtained from the closest station including government and personal stations which may have varying degrees of accuracy. Weather forecasts are derived from the NOAA NDFD. Like all things, this site belongs to Jesus Christ... He just trusts me to maintain it. If you have any questions or comments email webmaster@weatherforyou.com

Copyright © 2014, WeatherForYou.com LLC. All rights reserved.